• în Republica Moldova
  • Lista ţărilor
  • Pe 7 zile
  • Temperatura apei
  • Hartă satelitară
  • Meteo pe hartă
  • Widget-uri
  • user-avatar
    Intrare

    Meteo pe oră la Klagenfurt

    Astăzi, 28 Iunie, Miercuri

    Timp Temperatura Precipitaţii Vânt Presiune Umiditate
    00:00 +14°C° 0 mm 1 m/s 685 mmHg 86%
    01:00 +14°C° 0 mm 1 m/s 684 mmHg 86%
    02:00 +14°C° 0 mm 1 m/s 684 mmHg 86%
    03:00 +14°C° 0 mm 1 m/s 684 mmHg 86%
    04:00 +14°C° 0 mm 1 m/s 683 mmHg 85%
    05:00 +16°C° 0 mm 1 m/s 684 mmHg 80%
    06:00 +18°C° 0 mm 1 m/s 684 mmHg 75%
    07:00 +20°C° 0 mm 1 m/s 684 mmHg 69%
    08:00 +21°C° 0,1 mm 2 m/s 684 mmHg 66%
    09:00 +23°C° 0,1 mm 2 m/s 684 mmHg 63%
    10:00 +25°C° 0,1 mm 3 m/s 684 mmHg 60%
    11:00 +25°C° 0,5 mm 3 m/s 684 mmHg 60%
    12:00 +26°C° 0,5 mm 3 m/s 684 mmHg 59%
    13:00 +26°C° 0,5 mm 4 m/s 683 mmHg 59%
    14:00 +25°C° 0,8 mm 3 m/s 683 mmHg 63%
    15:00 +24°C° 0,8 mm 3 m/s 682 mmHg 68%
    16:00 +22°C° 0,8 mm 3 m/s 682 mmHg 73%
    17:00 +21°C° 3,9 mm 3 m/s 681 mmHg 80%
    18:00 +19°C° 3,9 mm 2 m/s 680 mmHg 87%
    19:00 +18°C° 3,9 mm 2 m/s 679 mmHg 94%
    20:00 +17°C° 6,6 mm 2 m/s 679 mmHg 95%
    21:00 +18°C° 6,6 mm 1 m/s 679 mmHg 96%
    22:00 +16°C° 6,6 mm 1 m/s 679 mmHg 97%
    23:00 +16°C° 1,3 mm 1 m/s 679 mmHg 97%

    Mâine, 29 Iunie, Joi

    Timp Temperatura Precipitaţii Vânt Presiune Umiditate
    00:00 +15°C° 1,3 mm 1 m/s 678 mmHg 96%
    01:00 +15°C° 1,3 mm 1 m/s 678 mmHg 96%
    02:00 +15°C° 0,6 mm 2 m/s 678 mmHg 96%
    03:00 +15°C° 0,6 mm 2 m/s 678 mmHg 96%
    04:00 +14°C° 0,6 mm 2 m/s 677 mmHg 95%
    05:00 +15°C° 0,1 mm 2 m/s 678 mmHg 93%
    06:00 +16°C° 0,1 mm 3 m/s 678 mmHg 91%
    07:00 +17°C° 0,1 mm 3 m/s 679 mmHg 89%
    08:00 +18°C° 0,2 mm 3 m/s 680 mmHg 82%
    09:00 +19°C° 0,2 mm 3 m/s 680 mmHg 76%
    10:00 +20°C° 0,2 mm 4 m/s 681 mmHg 69%
    11:00 +20°C° 0,4 mm 4 m/s 681 mmHg 67%
    12:00 +21°C° 0,4 mm 4 m/s 681 mmHg 66%
    13:00 +21°C° 0,4 mm 4 m/s 682 mmHg 64%
    14:00 +21°C° 0,3 mm 4 m/s 682 mmHg 62%
    15:00 +22°C° 0,3 mm 4 m/s 682 mmHg 60%
    16:00 +22°C° 0,3 mm 4 m/s 682 mmHg 58%
    17:00 +21°C° 0,1 mm 3 m/s 682 mmHg 62%
    18:00 +19°C° 0,1 mm 3 m/s 682 mmHg 67%
    19:00 +18°C° 0,1 mm 2 m/s 682 mmHg 72%
    20:00 +17°C° 0 mm 2 m/s 682 mmHg 76%
    21:00 +15°C° 0 mm 2 m/s 682 mmHg 80%
    22:00 +14°C° 0 mm 2 m/s 683 mmHg 84%
    23:00 +14°C° 0 mm 2 m/s 683 mmHg 85%

    Poimâine, 30 Iunie, Vineri

    Timp Temperatura Precipitaţii Vânt Presiune Umiditate
    00:00 +13°C° 0 mm 2 m/s 683 mmHg 86%
    01:00 +13°C° 0 mm 2 m/s 683 mmHg 88%
    02:00 +12°C° 0,1 mm 2 m/s 683 mmHg 89%
    03:00 +12°C° 0,1 mm 2 m/s 683 mmHg 90%
    04:00 +12°C° 0,1 mm 2 m/s 683 mmHg 91%
    05:00 +14°C° 0,1 mm 2 m/s 684 mmHg 86%
    06:00 +15°C° 0,1 mm 2 m/s 684 mmHg 81%
    07:00 +17°C° 0,1 mm 3 m/s 685 mmHg 77%
    08:00 +18°C° 0,1 mm 3 m/s 685 mmHg 69%
    09:00 +19°C° 0,1 mm 4 m/s 686 mmHg 60%
    10:00 +20°C° 0,1 mm 4 m/s 686 mmHg 52%
    11:00 +20°C° 0,1 mm 4 m/s 687 mmHg 51%
    12:00 +20°C° 0,1 mm 5 m/s 687 mmHg 51%
    13:00 +21°C° 0,1 mm 5 m/s 687 mmHg 50%
    14:00 +20°C° 0,1 mm 4 m/s 687 mmHg 52%
    15:00 +20°C° 0,1 mm 4 m/s 687 mmHg 53%
    16:00 +19°C° 0,1 mm 4 m/s 686 mmHg 55%
    17:00 +18°C° 0,2 mm 3 m/s 686 mmHg 61%
    18:00 +17°C° 0,2 mm 3 m/s 686 mmHg 68%
    19:00 +16°C° 0,2 mm 2 m/s 686 mmHg 74%
    20:00 +15°C° 0,5 mm 2 m/s 686 mmHg 79%
    21:00 +14°C° 0,5 mm 2 m/s 686 mmHg 84%
    22:00 +13°C° 0,5 mm 2 m/s 686 mmHg 90%
    23:00 +13°C° 0,4 mm 2 m/s 686 mmHg 91%

    1 Iulie, Sâmbătă

    Timp Temperatura Precipitaţii Vânt Presiune Umiditate
    00:00 +12°C° 0,4 mm 2 m/s 686 mmHg 92%
    01:00 +12°C° 0,4 mm 1 m/s 686 mmHg 94%
    02:00 +11°C° 0 mm 1 m/s 686 mmHg 95%
    03:00 +10°C° 0 mm 1 m/s 685 mmHg 95%
    04:00 +9°C° 0 mm 1 m/s 685 mmHg 96%
    05:00 +11°C° 0 mm 1 m/s 686 mmHg 91%
    06:00 +12°C° 0 mm 0 m/s 686 mmHg 86%
    07:00 +14°C° 0 mm 0 m/s 687 mmHg 82%
    08:00 +16°C° 0 mm 0 m/s 687 mmHg 71%
    09:00 +20°C° 0 mm 1 m/s 688 mmHg 61%
    10:00 +21°C° 0 mm 1 m/s 688 mmHg 51%
    11:00 +21°C° 0,3 mm 2 m/s 688 mmHg 51%
    12:00 +21°C° 0,3 mm 2 m/s 688 mmHg 52%
    13:00 +21°C° 0,3 mm 2 m/s 688 mmHg 52%
    14:00 +21°C° 0,3 mm 3 m/s 688 mmHg 54%
    15:00 +21°C° 0,3 mm 3 m/s 687 mmHg 56%
    16:00 +20°C° 0,3 mm 3 m/s 687 mmHg 57%
    17:00 +19°C° 0,2 mm 2 m/s 687 mmHg 65%
    18:00 +18°C° 0,2 mm 2 m/s 687 mmHg 72%
    19:00 +18°C° 0,2 mm 1 m/s 687 mmHg 80%
    20:00 +15°C° 0,2 mm 1 m/s 687 mmHg 84%
    21:00 +13°C° 0,2 mm 1 m/s 686 mmHg 88%
    22:00 +11°C° 0,2 mm 1 m/s 686 mmHg 92%
    23:00 +11°C° 0,2 mm 1 m/s 686 mmHg 92%

    2 Iulie, Duminică

    Timp Temperatura Precipitaţii Vânt Presiune Umiditate
    00:00 +11°C° 0,2 mm 1 m/s 687 mmHg 93%
    01:00 +11°C° 0,2 mm 1 m/s 687 mmHg 93%
    02:00 +10°C° 0,1 mm 1 m/s 687 mmHg 93%
    03:00 +10°C° 0,1 mm 1 m/s 687 mmHg 93%
    04:00 +10°C° 0,1 mm 1 m/s 687 mmHg 93%
    05:00 +11°C° 0 mm 1 m/s 687 mmHg 88%
    06:00 +13°C° 0 mm 1 m/s 688 mmHg 82%
    07:00 +14°C° 0 mm 1 m/s 688 mmHg 77%
    08:00 +16°C° 0 mm 1 m/s 689 mmHg 66%
    09:00 +19°C° 0 mm 1 m/s 689 mmHg 56%
    10:00 +22°C° 0 mm 1 m/s 690 mmHg 45%
    11:00 +22°C° 0,1 mm 1 m/s 690 mmHg 45%
    12:00 +23°C° 0,1 mm 1 m/s 690 mmHg 44%
    13:00 +23°C° 0,1 mm 2 m/s 690 mmHg 44%
    14:00 +23°C° 0,1 mm 2 m/s 690 mmHg 47%
    15:00 +21°C° 0,1 mm 2 m/s 690 mmHg 49%
    16:00 +21°C° 0,1 mm 2 m/s 690 mmHg 52%
    17:00 +20°C° 0,1 mm 1 m/s 690 mmHg 59%
    18:00 +19°C° 0,1 mm 1 m/s 690 mmHg 66%
    19:00 +18°C° 0,1 mm 1 m/s 690 mmHg 73%
    20:00 +15°C° 0 mm 1 m/s 690 mmHg 77%
    21:00 +13°C° 0 mm 1 m/s 690 mmHg 82%
    22:00 +11°C° 0 mm 1 m/s 690 mmHg 86%
    23:00 +11°C° 0 mm 1 m/s 690 mmHg 86%

    3 Iulie, Luni

    Timp Temperatura Precipitaţii Vânt Presiune Umiditate
    00:00 +10°C° 0 mm 1 m/s 690 mmHg 87%
    01:00 +10°C° 0 mm 1 m/s 690 mmHg 87%
    02:00 +10°C° 0 mm 1 m/s 690 mmHg 87%
    03:00 +10°C° 0 mm 1 m/s 690 mmHg 87%
    04:00 +9°C° 0 mm 1 m/s 689 mmHg 87%
    05:00 +11°C° 0 mm 1 m/s 690 mmHg 82%
    06:00 +13°C° 0 mm 1 m/s 691 mmHg 78%
    07:00 +15°C° 0 mm 1 m/s 691 mmHg 74%
    08:00 +18°C° 0,1 mm 1 m/s 691 mmHg 66%
    09:00 +20°C° 0,1 mm 1 m/s 692 mmHg 59%
    10:00 +22°C° 0,1 mm 1 m/s 692 mmHg 51%
    11:00 +23°C° 0,2 mm 1 m/s 692 mmHg 51%
    12:00 +23°C° 0,2 mm 1 m/s 692 mmHg 51%
    13:00 +23°C° 0,2 mm 1 m/s 691 mmHg 51%
    14:00 +23°C° 0,4 mm 1 m/s 691 mmHg 55%
    15:00 +22°C° 0,4 mm 1 m/s 691 mmHg 60%
    16:00 +22°C° 0,4 mm 1 m/s 690 mmHg 64%
    17:00 +20°C° 0,6 mm 1 m/s 690 mmHg 72%
    18:00 +19°C° 0,6 mm 1 m/s 690 mmHg 79%
    19:00 +16°C° 0,6 mm 0 m/s 690 mmHg 87%
    20:00 +14°C° 0,6 mm 0 m/s 690 mmHg 88%
    21:00 +13°C° 0,6 mm 1 m/s 690 mmHg 90%
    22:00 +11°C° 0,6 mm 1 m/s 689 mmHg 92%
    23:00 +11°C° 0,2 mm 1 m/s 689 mmHg 92%
    Arată mai mult